Preview of NWS' New Version of Forecast
This preview is not operational and should not be used for support decisions.

Regional Weather Roundup (RWR)

Issued by National Weather Service (NWS)

                            
000
ASUS43 KBIS 201710
RWRND 

NORTH DAKOTA REGIONAL WEATHER ROUNDUP
NATIONAL WEATHER SERVICE BISMARCK ND
1100 AM CST WED FEB 20 2019

NOTE: "FAIR" INDICATES FEW OR NO CLOUDS BELOW 12,000 FEET WITH NO
SIGNIFICANT WEATHER AND/OR OBSTRUCTIONS TO VISIBILITY.


NDZ001>003-009>011-017-201800-
NORTHWEST NORTH DAKOTA
  
CITY           SKY/WX    TMP DP  RH WIND       PRES   REMARKS
WILLISTON      CLOUDY     8   3  80 CALM      29.70F HAZE             
MINOT          LGT SNOW   9   2  73 CALM      29.72F                  
MINOT AFB      PTSUNNY    6   1  81 CALM      29.71F                  
$$
 
NDZ018>021-031>035-040>046-201800-
SOUTHWEST NORTH DAKOTA
  
CITY           SKY/WX    TMP DP  RH WIND       PRES   REMARKS
BISMARCK       LGT SNOW  13   9  84 NE6       29.71F FOG     WCI   4  
DICKINSON      LGT SNOW   4  -1  80 CALM      29.61S                  
GARRISON         N/A      5   1  83 CALM      29.70F                  
HETTINGER ARPT CLOUDY     6   1  80 NW7       29.62S WCI  -6          
$$
 
NDZ004>008-012>016-024-026-027-054-201800-
NORTHEAST NORTH DAKOTA
  
CITY           SKY/WX    TMP DP  RH WIND       PRES   REMARKS
GRAND FORKS    LGT SNOW  16  11  80 E10       29.82F WCI   4          
GRND FRKS AFB  CLOUDY    16  12  86 E8        29.81F FOG     WCI   5  
DEVILS LAKE    LGT SNOW  11   7  84 E7        29.77F FOG     WCI   0  
$$
 
NDZ022-023-025-028>030-036>039-047>053-201800-
SOUTHEAST NORTH DAKOTA
  
CITY           SKY/WX    TMP DP  RH WIND       PRES   REMARKS
FARGO          SNOW      17  14  88 E17       29.72F VSB 1/2 WCI   1  
JAMESTOWN      LGT SNOW  13   9  84 NE9       29.68  VSB 3/4 WCI   1  
$$